Flag for U.S.A. Weather past 2 weeks in Lewiston, Idaho, U.S.A.

Now
53 °F

Clear.


Feels Like: 52 °F
Forecast: 51 / 75 °F
Wind: 5 mph from Southeast

Location: Lewiston-Nez Perce County Airport

Current Time: May 27, 2015 at 2:06:10 AM

Latest Report: May 27, 2015 at 12:56 AM


Visibility: 10 mi

Pressure: 29.95 "Hg

Humidity: 83%

Dew point: 48 °F

Location of LewistonLocation

Historic Weather in Lewiston — Graph

°F

Lewiston temperature yesterday

Maximum temperature yesterday: 74 °F (at 4:56 PM)
Minimum temperature yesterday: 53 °F (at 11:56 PM)
Average temperature yesterday: 62 °F

Past Weeks' High & Low Weather Summary

 TemperatureHumidityPressure
High83 °F (May 22, 2:56 PM)100% (May 13, 2:04 AM)30.04 "Hg (May 13, 2:04 AM)
Low43 °F (May 14, 5:56 AM)26% (May 20, 3:56 PM)29.65 "Hg (May 13, 2:56 AM)
Average63 °F61%29.85 "Hg
* Reported May 12 12:56 AM — May 27 12:56 AM, Lewiston, Weather by CustomWeather, © 2015

Note: Actual official high and low records may vary slightly from our data, if they occured in-between our weather recording intervals... More about our weather records

Advertising

Lewiston weather history for previous 24 hours

 ConditionsComfort  
Time TempWeatherWind HumidityBarometerVisibility
12:56 AM
Wed, May 27
53 °FClear.5 mph83%29.95 "Hg10 mi
11:56 PM
Tue, May 26
53 °FClear.No wind86%29.95 "Hg10 mi
10:56 PM54 °FClear.7 mph86%29.94 "Hg10 mi
9:56 PM60 °FClear.No wind69%29.93 "Hg10 mi
8:56 PM60 °FSunny.6 mph72%29.93 "Hg10 mi
7:56 PM63 °FSunny.7 mph65%29.91 "Hg10 mi
6:56 PM63 °FPartly sunny.6 mph70%29.91 "Hg10 mi
5:56 PM66 °FThundershowers. Broken clouds.10 mph54%29.91 "Hg10 mi
4:56 PM74 °FPartly sunny.9 mph38%29.90 "Hg10 mi
3:56 PM73 °FSunny.7 mph41%29.90 "Hg10 mi
2:56 PM70 °FSunny.3 mph49%29.92 "Hg10 mi
1:56 PM65 °FLight rain. Mostly cloudy.3 mph61%29.94 "Hg10 mi
12:56 PM66 °FPassing clouds.8 mph56%29.95 "Hg10 mi
11:56 AM67 °FPassing clouds.7 mph55%29.94 "Hg10 mi
10:56 AM68 °FPartly sunny.3 mph55%29.93 "Hg10 mi
9:56 AM66 °FScattered clouds.6 mph59%29.94 "Hg10 mi
8:56 AM64 °FPartly sunny.7 mph68%29.94 "Hg10 mi
7:56 AM58 °FOvercast.3 mph81%29.95 "Hg10 mi
6:56 AM57 °FSunny.No wind83%29.93 "Hg10 mi
5:56 AM57 °FOvercast.5 mph81%29.92 "Hg10 mi
4:56 AM56 °FOvercast.5 mph81%29.91 "Hg10 mi
3:56 AM57 °FPassing clouds.No wind83%29.89 "Hg10 mi
2:56 AM58 °FPassing clouds.7 mph75%29.89 "Hg10 mi
Weather by CustomWeather, © 2015

See weather overviewHow to use our weather pages